Location: Palo Alto
(37.4420°N, 122.1420°W)
Time: 03:43:17
(UTC-07:00)

ISS - All Passes

Search period start: 29 July 2014 00:00
Search period end: 08 August 2014 00:00
Orbit: 411 x 419 km, 51.6° (Epoch: 29 July)

Date Brightness Start Highest point End Pass type
(mag) Time Alt. Az. Time Alt. Az. Time Alt. Az.
29 Jul - 00:35:59 10° W 00:39:01 32° NNW 00:42:04 10° NNE visible
29 Jul - 05:29:57 10° NNW 05:32:30 20° NNE 05:35:02 10° ENE visible
29 Jul - 07:06:08 10° WNW 07:09:25 54° SW 07:12:42 10° SE daylight
29 Jul - 22:12:05 10° SSE 22:13:46 13° SE 22:15:27 10° E night (unlit)
29 Jul - 23:46:51 10° WSW 23:50:07 54° NW 23:53:25 10° NE night (unlit)
30 Jul - 01:26:04 10° NW 01:27:27 12° NNW 01:28:51 10° N visible
30 Jul - 04:41:33 10° NNW 04:43:27 14° NNE 04:45:22 10° ENE visible
30 Jul - 06:17:16 10° NW 06:20:38 79° NE 06:23:59 10° SE daylight
30 Jul - 22:57:59 10° SW 23:01:18 80° SE 23:04:39 10° NE night (unlit)
31 Jul - 00:36:12 10° WNW 00:38:22 16° NNW 00:40:33 10° NNE visible
31 Jul - 03:53:25 10° N 03:54:21 11° NNE 03:55:18 10° NNE visible
31 Jul - 05:28:33 10° NW 05:31:47 43° NE 05:35:00 10° ESE visible
31 Jul - 07:05:57 10° W 07:08:15 17° SW 07:10:32 10° S daylight
31 Jul - 22:09:24 10° SSW 22:12:32 40° SE 22:15:42 10° ENE night (unlit)
31 Jul - 23:46:38 10° W 23:49:21 23° NNW 23:52:05 10° NNE night (unlit)
01 Aug - 04:39:56 10° NNW 04:42:51 27° NNE 04:45:45 10° E visible
01 Aug - 06:16:32 10° WNW 06:19:34 32° SW 06:22:35 10° SSE daylight
01 Aug - 21:21:14 10° S 21:23:50 22° SE 21:26:27 10° E visible
01 Aug - 22:57:18 10° WSW 23:00:23 35° NNW 23:03:30 10° NE visible
02 Aug - 03:51:25 10° NNW 03:53:51 18° NNE 03:56:16 10° ENE visible
02 Aug - 05:27:30 10° NW 05:30:49 62° SW 05:34:08 10° SE visible
02 Aug - 20:33:56 10° SSE 20:35:11 12° SE 20:36:26 10° ESE daylight
02 Aug - 22:08:12 10° WSW 22:11:30 61° NW 22:14:48 10° NE visible
02 Aug - 23:47:12 10° NW 23:48:46 13° NNW 23:50:20 10° N visible
03 Aug - 03:03:01 10° N 03:04:46 13° NNE 03:06:31 10° NE visible
03 Aug - 04:38:39 10° NW 04:42:00 69° NE 04:45:20 10° ESE visible
03 Aug - 06:17:33 10° WSW 06:18:16 11° SW 06:18:59 10° SW daylight
03 Aug - 21:19:22 10° SW 21:22:39 70° SE 21:25:59 10° NE visible
03 Aug - 22:57:23 10° WNW 22:59:41 17° NNW 23:01:58 10° NNE visible
04 Aug - 02:15:03 10° N 02:15:38 10° NNE 02:16:13 10° NNE visible
04 Aug - 03:49:55 10° NW 03:53:06 38° NE 03:56:16 10° ESE visible
04 Aug - 05:27:07 10° W 05:29:37 20° SW 05:32:06 10° S visible
04 Aug - 20:30:50 10° SSW 20:33:53 35° SE 20:36:57 10° ENE daylight
04 Aug - 22:07:51 10° W 22:10:39 24° NNW 22:13:27 10° NNE visible
05 Aug - 03:01:18 10° NNW 03:04:08 24° NNE 03:06:57 10° E night (unlit)
05 Aug - 04:37:47 10° WNW 04:40:54 36° SW 04:44:00 10° SSE visible
05 Aug - 19:42:44 10° S 19:45:10 19° SE 19:47:36 10° E daylight
05 Aug - 21:18:32 10° WSW 21:21:40 38° NW 21:24:50 10° NE visible
05 Aug - 22:58:36 10° NNW 22:59:08 10° NNW 22:59:40 10° N visible
06 Aug - 02:12:47 10° NNW 02:15:05 17° NNE 02:17:23 10° ENE night (unlit)
06 Aug - 03:48:46 10° NW 03:52:07 71° SW 03:55:27 10° SE night (unlit)
06 Aug - 18:56:06 10° SE 18:56:30 10° SE 18:56:54 10° ESE daylight
06 Aug - 20:29:27 10° WSW 20:32:45 70° NW 20:36:05 10° NE daylight
06 Aug - 22:08:16 10° NW 22:09:59 13° NNW 22:11:42 10° N visible
07 Aug - 01:24:25 10° N 01:25:59 13° NNE 01:27:32 10° NE visible
07 Aug - 02:59:55 10° NW 03:03:15 61° NE 03:06:34 10° ESE night (unlit)
07 Aug - 04:38:13 10° WSW 04:39:34 12° SW 04:40:56 10° SSW night (unlit)
07 Aug - 19:40:39 10° SW 19:43:55 61° SE 19:47:12 10° ENE daylight
07 Aug - 21:18:29 10° WNW 21:20:53 18° NNW 21:23:17 10° NNE visible
